| time (UTC) | temp C | wind direction | speed KPH | gust KPH | rain 1hr cm | rain 24hr cm | rain mn cm | humidity % | barometer mb |
| 20260505173028 | 1 | 72 | 4.8 | 11.3 | 0.15 | 2.95 | 2.49 | 91 | 1010.6 |
| 20260505171528 | 1 | 60 | 0.0 | 3.2 | 0.13 | 2.87 | 2.39 | 91 | 1010.9 |
| 20260505170027 | 1 | 341 | 0.0 | 1.6 | 0.20 | 2.87 | 2.39 | 90 | 1010.9 |
| 20260505164529 | 1 | 0 | 0.0 | 3.2 | 0.28 | 2.84 | 2.36 | 90 | 1010.8 |
| 20260505163026 | 1 | 329 | 1.6 | 3.2 | 0.30 | 2.82 | 2.34 | 90 | 1010.8 |
| 20260505161528 | 1 | 329 | 1.6 | 3.2 | 0.30 | 2.74 | 2.26 | 90 | 1010.9 |
| 20260505153029 | 2 | 98 | 1.6 | 6.4 | 0.28 | 2.51 | 2.03 | 89 | 1010.7 |
| 20260505151527 | 2 | 74 | 1.6 | 4.8 | 0.33 | 2.44 | 1.96 | 90 | 1010.9 |
| 20260505124530 | 3 | 38 | 1.6 | 4.8 | 0.03 | 1.32 | 0.86 | 91 | 1010.2 |
| 20260505123025 | 3 | 59 | 0.0 | 11.3 | 0.05 | 1.32 | 0.86 | 91 | 1010.2 |
| 20260505121528 | 4 | 115 | 1.6 | 17.7 | 0.20 | 1.32 | 0.86 | 91 | 1010.1 |
| 20260505120100 | 5 | 96 | 4.8 | 12.9 | 0.33 | 1.32 | 0.86 | 92 | 1010.3 |
| 20260505114527 | 5 | 121 | 3.2 | 9.7 | 0.46 | 1.32 | 0.84 | 91 | 1010.2 |
| 20260505113029 | 5 | 208 | 4.8 | 25.7 | 0.53 | 1.30 | 0.81 | 91 | 1010.4 |
| 20260505111535 | 5 | 40 | 1.6 | 12.9 | 0.43 | 1.12 | 0.64 | 91 | 1010.6 |
| 20260505094535 | 5 | 0 | 0.0 | 3.2 | 0.03 | 0.56 | 0.08 | 90 | 1010.3 |
| 20260505093031 | 5 | 0 | 0.0 | 3.2 | 0.03 | 0.53 | 0.05 | 90 | 1010.4 |
| 20260505091528 | 5 | 65 | 3.2 | 6.4 | 0.03 | 0.53 | 0.05 | 90 | 1010.4 |
| 20260505090030 | 5 | 0 | 0.0 | 4.8 | 0.03 | 0.53 | 0.05 | 89 | 1010.4 |
| 20260505084528 | 5 | 135 | 1.6 | 6.4 | 0.03 | 0.53 | 0.05 | 89 | 1010.6 |
| 20260505083028 | 5 | 284 | 1.6 | 6.4 | 0.00 | 0.51 | 0.03 | 89 | 1010.9 |
| 20260505081541 | 5 | 0 | 0.0 | 4.8 | 0.00 | 0.51 | 0.03 | 89 | 1010.9 |
| 20260505080028 | 5 | 329 | 0.0 | 3.2 | 0.00 | 0.51 | 0.03 | 88 | 1010.8 |
| 20260505074529 | 5 | 0 | 0.0 | 4.8 | 0.00 | 0.51 | 0.03 | 88 | 1011.0 |
| 20260505073041 | 5 | 320 | 1.6 | 3.2 | 0.03 | 0.51 | 0.03 | 88 | 1011.2 |
| 20260505071544 | 5 | 329 | 1.6 | 3.2 | 0.03 | 0.51 | 0.03 | 87 | 1011.4 |
| 20260505070029 | 5 | 0 | 0.0 | 4.8 | 0.03 | 0.51 | 0.03 | 87 | 1011.4 |
| 20260505064528 | 5 | 0 | 3.2 | 9.7 | 0.03 | 0.51 | 0.03 | 87 | 1011.5 |
| 20260505063029 | 5 | 142 | 1.6 | 6.4 | 0.00 | 0.48 | 0.00 | 87 | 1011.5 |
| 20260505061531 | 5 | 273 | 1.6 | 3.2 | 0.00 | 0.48 | 0.00 | 86 | 1011.4 |
| 20260505060028 | 5 | 0 | 1.6 | 6.4 | 0.00 | 0.48 | 0.00 | 85 | 1011.1 |
| 20260505054547 | 5 | 332 | 1.6 | 4.8 | 0.00 | 0.48 | 0.48 | 85 | 1011.1 |
| 20260505053038 | 5 | 360 | 3.2 | 4.8 | 0.00 | 0.48 | 0.48 | 84 | 1011.2 |
| 20260505051535 | 4 | 0 | 0.0 | 6.4 | 0.00 | 0.48 | 0.48 | 83 | 1011.4 |
| 20260505041528 | 5 | 326 | 3.2 | 4.8 | 0.00 | 0.48 | 0.48 | 77 | 1011.2 |
| 20260505040040 | 6 | 0 | 1.6 | 8.0 | 0.00 | 0.48 | 0.48 | 77 | 1011.2 |
| 20260505034529 | 6 | 322 | 0.0 | 4.8 | 0.00 | 0.48 | 0.48 | 77 | 1011.0 |
| 20260505033036 | 6 | 0 | 0.0 | 6.4 | 0.00 | 0.48 | 0.48 | 76 | 1011.1 |
| 20260505031529 | 6 | 0 | 3.2 | 11.3 | 0.00 | 0.48 | 0.48 | 75 | 1011.0 |
| 20260505030028 | 6 | 44 | 4.8 | 12.9 | 0.00 | 0.48 | 0.48 | 74 | 1010.9 |
| 20260505024527 | 7 | 26 | 3.2 | 6.4 | 0.00 | 0.48 | 0.48 | 71 | 1010.8 |
| 20260505023031 | 8 | 299 | 1.6 | 3.2 | 0.00 | 0.48 | 0.48 | 70 | 1010.7 |
| 20260505021526 | 8 | 0 | 0.0 | 8.0 | 0.00 | 0.48 | 0.48 | 68 | 1010.6 |
| 20260505020028 | 8 | 245 | 3.2 | 8.0 | 0.00 | 0.48 | 0.48 | 66 | 1010.4 |
| 20260505014541 | 9 | 254 | 4.8 | 9.7 | 0.00 | 0.48 | 0.48 | 65 | 1010.2 |
| 20260505013029 | 10 | 0 | 0.0 | 4.8 | 0.00 | 0.48 | 0.48 | 63 | 1010.1 |
| 20260505011528 | 10 | 301 | 3.2 | 4.8 | 0.00 | 0.48 | 0.48 | 62 | 1010.0 |
| 20260505010028 | 10 | 347 | 0.0 | 3.2 | 0.00 | 0.48 | 0.48 | 60 | 1010.0 |
| 20260505004533 | 10 | 0 | 0.0 | 4.8 | 0.00 | 0.48 | 0.48 | 59 | 1010.0 |
| 20260505003028 | 10 | 63 | 0.0 | 14.5 | 0.00 | 0.48 | 0.48 | 58 | 1010.3 |
| 20260505001528 | 10 | 116 | 11.3 | 20.9 | 0.03 | 0.48 | 0.48 | 60 | 1010.2 |
| 20260505000029 | 10 | 101 | 8.0 | 24.1 | 0.08 | 0.48 | 0.48 | 62 | 1010.8 |
| 20260504234528 | 9 | 20 | 11.3 | 29.0 | 0.20 | 0.48 | 0.48 | 63 | 1011.3 |
| 20260504233028 | 9 | 22 | 19.3 | 35.4 | 0.46 | 0.48 | 0.48 | 65 | 1011.4 |
| 20260504231530 | 8 | 5 | 24.1 | 37.0 | 0.46 | 0.46 | 0.46 | 67 | 1011.0 |
| 20260504230029 | 8 | 5 | 24.1 | 38.6 | 0.41 | 0.41 | 0.41 | 68 | 1010.7 |
| 20260504224529 | 11 | 350 | 14.5 | 32.2 | 0.25 | 0.25 | 0.25 | 61 | 1010.8 |
| 20260504223028 | 13 | 11 | 11.3 | 27.4 | 0.03 | 0.03 | 0.03 | 52 | 1010.6 |
| 20260504221530 | 15 | 351 | 9.7 | 20.9 | 0.00 | 0.00 | 0.00 | 40 | 1010.2 |
| 20260504220030 | 16 | 315 | 14.5 | 25.7 | 0.00 | 0.00 | 0.00 | 38 | 1010.0 |
| 20260504214530 | 16 | 246 | 9.7 | 25.7 | 0.00 | 0.00 | 0.00 | 39 | 1009.7 |
| 20260504213028 | 16 | 229 | 6.4 | 19.3 | 0.00 | 0.00 | 0.00 | 37 | 1009.5 |
| 20260504211528 | 17 | 259 | 6.4 | 22.5 | 0.00 | 0.00 | 0.00 | 36 | 1009.7 |
| 20260504210026 | 17 | 221 | 8.0 | 20.9 | 0.00 | 0.00 | 0.00 | 30 | 1009.9 |
| 20260504204529 | 18 | 182 | 8.0 | 19.3 | 0.00 | 0.00 | 0.00 | 33 | 1010.0 |
| 20260504203032 | 18 | 179 | 9.7 | 27.4 | 0.00 | 0.00 | 0.00 | 35 | 1010.2 |
| 20260504201528 | 18 | 153 | 12.9 | 27.4 | 0.00 | 0.00 | 0.00 | 37 | 1010.6 |
| 20260504200038 | 17 | 238 | 11.3 | 33.8 | 0.00 | 0.00 | 0.00 | 35 | 1010.7 |
| 20260504194528 | 18 | 235 | 11.3 | 24.1 | 0.00 | 0.00 | 0.00 | 33 | 1010.4 |
| 20260504193028 | 18 | 119 | 11.3 | 19.3 | 0.00 | 0.00 | 0.00 | 32 | 1010.9 |
| 20260504191546 | 17 | 0 | 4.8 | 16.1 | 0.00 | 0.00 | 0.00 | 32 | 1011.1 |
| 20260504190027 | 16 | 225 | 4.8 | 12.9 | 0.00 | 0.00 | 0.00 | 34 | 1011.4 |
| 20260504184612 | 16 | 238 | 1.6 | 19.3 | 0.00 | 0.00 | 0.00 | 35 | 1011.8 |
| 20260504184527 | 16 | 238 | 1.6 | 19.3 | 0.00 | 0.00 | 0.00 | 35 | 1011.8 |
| 20260504183039 | 17 | 5 | 12.9 | 20.9 | 0.00 | 0.00 | 0.00 | 35 | 1011.9 |
| 20260504181529 | 17 | 257 | 9.7 | 22.5 | 0.00 | 0.00 | 0.00 | 35 | 1012.1 |
| 20260504180030 | 16 | 219 | 12.9 | 25.7 | 0.00 | 0.00 | 0.00 | 40 | 1012.3 |
| 20260504174530 | 16 | 231 | 9.7 | 22.5 | 0.00 | 0.00 | 0.00 | 39 | 1012.4 |